EHI
51 56 62 65 64 60 56 52 50 45 38 28 20 14 10 6 2 2 4 5 4 4 4 2 1 0 0 0 0 0 0 0 0 0 0 0 0 0 0 0 0 0 0
59 62 66 68 67 64 58 54 52 46 38 29 22 16 11 5 1 1 4 6 7 6 4 3 2 1 1 1 1 1 0 0 0 0 0 0 0 0 0 0 0 0 0
66 68 69 69 69 66 61 57 53 46 37 29 25 21 15 8 3 1 2 6 7 7 5 4 3 2 2 2 2 2 1 1 0 0 0 0 0 0 0 0 0 0 0
66 67 68 68 67 64 62 58 53 46 37 30 27 24 19 13 7 3 1 3 4 5 6 5 4 2 1 2 3 3 3 2 1 0 0 0 0 0 0 0 0 0 0
60 62 65 66 66 64 62 57 52 45 37 31 27 23 19 14 9 5 2 2 3 4 5 5 4 2 1 2 3 3 3 3 2 1 0 0 0 0 0 0 0 0 0
54 57 63 66 68 67 64 58 52 45 38 32 28 22 16 12 9 6 4 3 3 4 4 3 3 3 3 3 3 3 3 3 3 2 1 1 0 0 0 0 0 0 0
51 55 60 66 69 69 66 61 55 48 39 33 28 23 16 11 9 8 7 6 4 2 2 3 4 4 4 3 3 3 3 3 3 2 2 1 0 0 0 0 0 0 0
51 54 58 62 66 67 65 62 57 50 40 33 28 22 16 10 8 8 8 6 4 1 2 4 6 6 5 4 3 3 3 2 1 1 1 1 0 0 0 0 0 0 0
52 54 56 59 61 63 62 59 55 47 37 29 24 20 15 9 6 6 6 4 2 1 2 5 6 6 6 5 3 2 1 1 0 0 0 0 0 0 0 0 0 0 0
51 51 53 54 56 57 57 55 50 42 32 25 21 16 12 8 5 4 4 3 2 2 4 5 6 6 5 4 3 1 0 0 0 0 0 0 0 0 0 0 0 0 0
49 49 49 49 50 53 54 51 46 39 32 27 20 13 10 7 4 4 5 5 4 5 5 5 4 4 4 3 3 2 1 1 0 0 0 0 0 0 0 0 0 0 0
47 48 49 49 50 54 56 52 46 39 34 28 21 14 11 8 5 5 6 6 6 6 6 4 3 2 3 4 4 3 2 2 2 1 1 0 0 0 0 0 0 0 0
48 50 52 52 53 54 56 54 47 40 34 30 24 19 15 12 8 7 7 8 7 7 5 4 3 3 3 3 4 4 4 4 4 4 3 2 0 0 0 0 0 0 0
51 52 53 54 52 50 51 52 48 42 37 33 28 23 20 16 11 10 10 9 7 6 4 3 3 3 3 3 4 4 5 5 5 4 4 3 1 0 0 0 0 0 0
50 52 52 51 48 45 45 46 47 44 40 37 32 28 25 20 15 13 11 8 6 5 3 3 3 2 3 3 3 4 4 4 3 2 2 2 1 1 0 0 0 0 0
50 51 53 52 50 46 43 43 45 45 42 40 36 33 29 25 20 15 11 7 5 3 3 2 3 3 3 3 2 2 2 2 1 0 0 0 0 0 0 0 0 0 0
53 53 55 56 55 51 48 47 48 48 46 42 38 34 32 30 25 18 12 8 5 3 3 3 3 3 2 1 1 1 1 1 0 0 0 0 0 0 0 0 0 0 0
56 55 55 56 56 55 54 56 55 51 47 42 36 32 31 30 25 19 13 9 5 3 3 2 3 2 1 0 0 0 0 0 0 0 0 0 0 0 0 0 0 0 0
61 58 55 54 54 55 56 58 55 47 42 38 33 29 27 25 21 17 12 7 4 3 1 1 1 1 1 0 0 0 0 0 0 0 0 0 0 0 0 0 0 0 0
63 61 57 53 51 52 53 53 49 40 34 32 30 26 23 21 17 15 12 7 4 3 1 0 0 0 0 0 0 0 0 0 0 0 0 0 0 0 0 0 0 0 0
61 60 57 52 49 49 50 48 43 36 30 28 26 25 22 18 15 14 12 7 4 3 2 0 0 0 0 0 0 0 0 0 0 0 0 0 0 0 0 0 0 0 0
57 56 53 49 48 48 50 48 42 34 29 26 23 22 21 17 16 15 13 9 7 5 3 2 2 2 1 0 0 0 0 0 0 0 0 0 0 0 0 0 0 0 0
50 48 46 44 43 44 46 46 41 34 29 24 20 18 17 16 16 15 12 11 10 9 7 6 5 3 1 0 0 0 0 0 0 0 0 0 0 0 0 0 0 0 0
38 37 38 37 35 34 36 36 34 30 26 22 16 13 13 13 11 9 7 7 7 7 7 6 5 3 1 0 0 0 0 0 0 0 0 0 0 0 0 0 0 0 0
26 27 29 29 26 24 24 25 24 22 20 17 13 11 9 7 4 3 2 2 2 2 3 2 2 2 1 0 0 0 0 0 0 0 0 0 0 0 0 0 0 0 0
20 22 23 22 20 18 18 18 17 17 15 14 13 10 6 3 1 0 0 0 0 0 0 0 0 1 0 0 0 0 0 0 0 0 0 0 0 0 0 0 0 0 0
Wind_Speed
9 9 10 11 10 9 9 9 8 8 6 4 3 3 2 2 2 2 4 5 5 5 5 4 3 4 3 4 4 3 3 2 2 2 1 2 1 2 3 3 3 5 6
9 9 9 10 10 10 9 9 9 8 7 5 4 3 3 2 2 2 3 5 5 5 5 4 4 4 3 4 4 3 2 2 2 3 2 1 3 2 2 2 4 5 4
13 11 11 10 9 10 10 9 9 8 7 6 3 2 2 1 0 2 2 4 5 5 5 5 4 4 4 4 4 4 4 3 2 2 4 3 3 2 2 2 3 3 3
11 10 10 10 10 10 9 9 9 8 7 6 5 6 4 4 4 3 3 3 5 5 5 5 5 5 4 4 5 4 4 4 3 2 2 3 4 3 1 2 1 3 4
12 12 12 11 9 9 9 8 8 8 8 7 7 6 4 3 2 2 3 3 4 5 5 6 5 5 4 5 5 4 4 4 4 3 2 2 1 2 3 2 2 1 2
11 11 10 8 7 8 8 8 8 8 8 8 7 7 6 5 4 3 3 3 3 3 4 5 5 5 4 5 5 5 5 4 4 3 3 3 3 3 3 3 2 2 2
10 10 10 10 9 9 9 8 8 7 7 7 7 7 6 6 5 4 4 4 3 3 4 5 4 4 4 5 4 4 5 5 4 4 4 3 3 3 3 3 2 2 2
9 10 11 10 10 10 10 9 9 7 7 7 6 5 5 4 4 4 4 4 4 4 4 5 5 5 5 5 4 4 4 4 4 5 4 3 3 3 4 4 4 2 1
10 10 10 10 9 9 9 10 9 7 7 7 6 5 5 5 5 4 4 3 4 4 4 5 5 5 4 4 4 3 4 4 4 4 4 4 3 3 3 4 4 5 3
8 9 9 9 9 8 8 8 8 8 7 6 6 5 5 5 4 4 4 4 4 4 4 4 5 5 4 4 4 3 4 4 3 3 3 3 3 3 3 3 3 4 4
11 9 8 8 8 7 8 8 7 7 6 6 5 5 4 4 4 4 4 4 3 4 4 4 4 4 4 4 4 4 4 4 3 3 4 4 3 3 3 3 3 3 3
10 9 8 8 8 8 8 8 8 7 7 6 5 5 4 4 3 3 3 3 3 3 4 4 4 4 4 4 4 4 4 4 4 4 3 3 3 3 3 3 3 3 4
8 7 7 7 8 9 8 8 8 8 7 6 6 5 4 4 4 4 3 3 3 3 2 3 4 4 4 4 4 4 4 4 4 4 4 4 3 4 3 3 3 3 3
10 9 7 7 8 8 8 8 7 7 7 7 6 5 5 5 4 4 3 3 3 2 2 3 3 4 3 3 3 3 3 3 3 3 3 3 4 4 4 3 4 3 3
9 10 9 8 7 7 7 7 7 7 7 7 6 6 5 4 4 3 3 3 2 3 2 2 2 2 2 3 3 3 3 3 2 2 1 2 3 4 3 3 3 4 4
11 11 10 9 9 9 8 7 7 7 7 7 7 6 5 4 4 4 3 2 2 1 1 1 2 1 1 2 4 3 2 2 2 1 1 1 1 2 2 3 4 5 5
9 9 10 10 9 8 8 8 8 6 7 7 6 5 5 5 5 4 3 3 2 2 2 1 1 2 1 1 2 2 2 2 2 2 1 1 0 0 0 0 0 2 3
9 8 8 7 6 6 6 6 7 7 7 6 5 5 5 5 4 4 4 3 2 2 2 2 2 2 1 1 2 2 2 1 1 1 1 1 0 0 0 1 1 1 0
9 7 7 6 6 7 7 8 6 6 6 6 5 5 6 5 5 5 4 2 2 2 2 2 2 2 1 1 2 2 2 1 1 0 1 1 1 0 2 3 2 1 1
7 6 7 6 6 6 7 8 7 6 6 6 5 5 5 6 5 5 4 3 2 2 2 2 1 2 2 1 2 2 2 1 1 1 1 2 1 2 3 2 3 2 1
6 7 8 7 5 6 7 6 6 6 5 5 4 4 4 5 5 4 3 3 2 3 3 2 1 1 2 2 2 2 2 2 2 1 0 0 1 2 2 2 2 3 2
7 7 7 6 4 5 6 6 4 4 4 4 4 4 4 4 4 4 3 3 3 3 3 2 1 1 1 2 2 3 3 3 3 2 1 1 2 1 2 1 2 3 3
6 6 7 6 4 3 5 5 2 3 4 5 4 4 3 3 3 4 3 2 2 2 2 2 2 2 1 1 2 3 3 3 2 2 3 3 2 1 1 2 3 3 2
6 5 6 7 4 3 4 3 2 3 5 4 3 3 3 3 3 2 2 2 2 2 2 2 2 2 1 1 1 1 2 2 2 2 2 2 1 1 1 1 1 1 2
4 5 5 5 4 3 4 4 3 4 4 4 3 3 3 4 4 3 3 1 1 1 2 2 2 2 2 3 3 3 2 2 3 3 1 1 0 1 1 0 0 1 1
5 5 5 5 4 4 5 4 4 4 4 3 2 2 2 3 3 3 3 6 4 4 3 1 1 1 1 2 3 3 4 4 5 3 2 2 2 2 2 1 1 1 2
Wind_Direction
178 166 164 165 162 162 163 162 161 169 161 156 159 159 175 183 184 193 189 184 181 177 172 177 176 170 172 180 172 155 157 175 147 98 24 344 294 215 210 199 192 202 206
165 166 166 168 170 171 168 167 167 175 174 171 164 161 164 185 194 203 197 193 187 187 186 179 179 178 172 178 174 157 154 184 158 138 121 342 335 307 237 203 197 199 199
173 173 173 177 175 175 175 176 174 175 176 164 145 137 124 104 181 212 216 210 194 194 190 187 182 183 179 185 190 175 165 184 208 167 154 165 219 275 304 240 214 198 193
175 175 180 180 182 181 175 171 173 173 174 168 167 170 180 197 206 198 212 223 208 201 193 189 188 190 187 188 200 187 176 168 195 214 201 184 168 167 261 304 260 213 204
176 179 186 184 182 176 172 172 172 176 177 179 181 181 190 200 195 189 211 228 226 212 202 195 191 192 192 195 202 190 186 180 186 191 187 189 184 169 167 238 272 271 229
177 178 181 173 173 170 170 172 174 183 183 182 183 184 189 192 188 197 209 223 226 222 213 200 196 195 193 196 202 199 195 196 195 193 183 177 179 192 178 202 224 233 259
169 168 169 172 172 172 174 175 174 182 182 182 187 190 191 189 196 201 207 210 216 219 217 206 201 201 203 202 199 200 204 199 198 203 204 199 199 185 172 174 199 217 246
171 171 172 172 174 176 174 174 177 181 179 182 188 189 187 188 201 204 202 208 215 217 213 204 206 204 203 206 197 199 206 201 207 215 210 207 212 196 186 177 172 194 243
173 173 171 169 171 174 176 175 176 177 181 184 182 186 190 194 203 209 209 215 220 219 213 206 204 205 201 200 192 203 209 200 210 220 220 222 222 207 204 190 176 176 201
169 170 169 171 173 176 174 170 173 177 178 180 183 187 194 200 204 202 210 218 224 223 202 204 204 202 200 202 195 202 206 199 209 211 217 229 230 219 208 197 196 188 186
175 174 172 171 167 166 165 167 170 169 173 181 185 185 192 199 199 202 213 217 221 210 200 198 198 199 201 204 203 210 203 202 214 222 218 230 226 224 222 207 201 200 179
169 166 165 161 160 164 168 171 172 172 178 180 181 187 187 185 191 208 215 209 210 209 203 190 190 197 199 197 201 211 206 200 208 218 216 232 235 230 228 220 216 210 193
162 159 155 162 166 169 172 174 175 177 177 174 177 184 184 185 196 206 204 199 199 201 197 189 195 201 203 202 204 207 208 213 217 216 216 229 225 232 226 223 220 217 207
164 162 165 169 171 173 174 174 177 176 174 173 176 183 189 192 196 197 194 195 195 195 204 205 204 205 204 200 202 199 202 213 223 222 219 225 223 224 226 226 219 205 191
165 169 171 170 169 171 174 174 174 174 172 172 178 187 189 188 185 186 191 194 199 209 210 206 207 205 198 203 198 202 205 206 216 222 222 229 225 219 219 218 211 198 188
174 177 175 172 174 176 176 175 176 175 169 172 181 181 177 177 179 181 178 175 183 179 162 168 179 193 213 196 189 190 195 191 185 207 261 269 259 228 219 212 211 201 192
167 175 177 179 180 177 171 174 173 163 161 168 175 177 173 176 181 173 160 166 181 159 144 155 146 138 152 178 176 183 168 177 178 189 226 258 279 321 153 134 204 214 198
165 176 176 174 168 160 157 157 151 152 160 167 171 175 171 173 171 162 165 176 167 154 153 144 135 134 133 129 123 123 118 126 158 190 201 188 249 342 101 119 88 65 73
163 168 169 162 154 152 149 140 143 148 152 162 171 175 169 167 163 162 168 168 158 156 154 150 148 149 153 137 138 123 115 123 129 96 81 112 116 52 119 120 125 108 48
142 142 137 127 131 141 140 141 151 156 168 177 178 173 169 167 169 169 169 165 163 165 154 149 152 162 174 171 147 126 126 141 145 58 57 72 92 109 120 133 142 150 176
112 116 118 122 133 136 134 141 151 172 182 170 161 158 162 165 165 162 162 157 157 151 151 151 151 153 165 172 167 155 158 170 173 168 171 12 102 123 136 141 165 180 157
109 110 114 114 113 121 129 138 160 173 147 140 145 151 153 161 157 149 154 155 156 159 167 171 189 202 181 182 191 185 183 175 170 185 191 187 143 132 148 152 147 139 129
109 105 108 102 90 98 117 128 154 145 133 136 147 150 145 146 145 151 157 157 164 177 193 197 209 222 213 200 196 189 183 172 168 177 177 169 160 145 142 156 152 146 143
101 102 104 104 96 83 89 103 102 125 130 134 140 141 139 129 109 111 131 152 174 189 200 211 218 214 197 203 187 180 172 157 151 153 146 145 142 137 149 150 164 175 182
100 105 109 108 103 93 81 69 71 93 106 114 119 124 125 126 113 90 60 83 103 196 203 217 205 197 217 232 212 187 187 185 178 147 124 121 138 174 196 206 232 202 173
104 103 100 96 84 74 68 57 60 83 103 107 111 120 121 122 123 120 83 44 50 39 49 56 153 173 185 171 176 184 178 171 162 145 166 195 202 208 210 214 232 223 206